Home   Weather   San Jose   Past weeks

Flag for USA Past Weather in San Jose, California, USA — Yesterday and Last 2 Weeks

Now
58 °F

Overcast.


Feels Like: 58 °F
Forecast: 56 / 66 °F
Wind: 5 mph from Northwest

Location: San Jose International Airport

Current Time: Apr 26, 2017 at 3:10:37 am

Latest Report: Apr 26, 2017 at 1:53 am


Visibility: 10 mi

Pressure: 30.10 "Hg

Humidity: 78%

Dew Point: 51 °F

Location of San JoseLocation

Past Weather in San Jose — Graph

°F

San Jose Temperature Yesterday

Maximum temperature yesterday: 67 °F (at 2:53 pm)
Minimum temperature yesterday: 52 °F (at 4:24 am)
Average temperature yesterday: 59 °F

High & Low Weather Summary for the Past Weeks

 TemperatureHumidityPressure
High76 °F (Apr 21, 1:53 pm)93% (Apr 13, 4:53 am)30.31 "Hg (Apr 13, 4:53 am)
Low44 °F (Apr 15, 4:53 am)30% (Apr 22, 10:53 am)29.90 "Hg (Apr 16, 4:53 am)
Average59 °F66%30.07 "Hg
* Reported Apr 11 1:53 am — Apr 26 1:53 am, San Jose, Weather by CustomWeather, © 2017

Note: Actual official high and low records may vary slightly from our data, if they occured in-between our weather recording intervals... More about our weather records

Advertising

San Jose Weather History for the Previous 24 Hours

Scroll right to see more
 ConditionsComfort  
Time TempWeatherWind HumidityBarometerVisibility
1:53 am
Wed, Apr 26
58 °FOvercast.5 mph78%30.10 "Hg10 mi
1:07 am58 °FMostly cloudy.No wind78%30.10 "Hg10 mi
12:32 am59 °FMostly cloudy.5 mph75%30.11 "Hg10 mi
12:07 am58 °FPassing clouds.7 mph78%30.12 "Hg10 mi
10:53 pm
Tue, Apr 25
58 °FPassing clouds.7 mph75%30.12 "Hg10 mi
9:53 pm58 °FPassing clouds.8 mph72%30.11 "Hg10 mi
8:53 pm59 °FPassing clouds.10 mph69%30.11 "Hg10 mi
7:53 pm60 °FPassing clouds.15 mph65%30.10 "Hg10 mi
6:53 pm63 °FPartly sunny.12 mph60%30.08 "Hg10 mi
5:53 pm65 °FPartly sunny.21 mph56%30.08 "Hg10 mi
4:53 pm65 °FBroken clouds.15 mph59%30.08 "Hg10 mi
3:53 pm67 °FBroken clouds.20 mph55%30.08 "Hg10 mi
2:53 pm67 °FPartly sunny.17 mph55%30.09 "Hg10 mi
1:53 pm65 °FBroken clouds.17 mph56%30.09 "Hg10 mi
12:53 pm64 °FBroken clouds.16 mph54%30.11 "Hg10 mi
11:53 am63 °FBroken clouds.12 mph54%30.11 "Hg10 mi
10:53 am61 °FPartly sunny.12 mph60%30.11 "Hg10 mi
9:53 am59 °FPartly sunny.9 mph60%30.11 "Hg10 mi
8:53 am58 °FBroken clouds.6 mph62%30.08 "Hg10 mi
7:53 am57 °FPartly sunny.7 mph62%30.08 "Hg10 mi
6:53 am53 °FBroken clouds.6 mph74%30.06 "Hg10 mi
5:53 am53 °FMostly cloudy.6 mph74%30.06 "Hg10 mi
4:53 am52 °FPassing clouds.9 mph75%30.07 "Hg10 mi
4:24 am52 °FPassing clouds.3 mph75%30.07 "Hg10 mi
3:53 am53 °FPassing clouds.8 mph74%30.07 "Hg10 mi
Weather by CustomWeather, © 2017

See weather overviewHow to use our weather pages